Regional Weather Roundup
Issued by NWS

Home | Current Version | Previous Version | Text Only | Print | Product List | Glossary On
Versions: 1 2 3 4 5 6 7 8 9 10 11 12 13 14 15 16 17 18 19 20 21 22 23 24 25 26 27 28 29 30 31 32 33 34 35 36 37 38 39 40 41 42 43 44 45 46 47 48 49 50
000
ASUS45 KBOU 231110
RWRCO

WEATHER ROUNDUP FOR COLORADO
NATIONAL WEATHER SERVICE DENVER/BOULDER CO
400 AM MST THU NOV 23 2017

NOTE: "FAIR" INDICATES FEW OR NO CLOUDS BELOW 12000 FEET WITH NO
SIGNIFICANT WEATHER AND/OR OBSTRUCTIONS TO VISIBILITY.

COZ001>005-013-030-031-231200-
...NORTHWEST COLORADO...

CITY           SKY/WX    TMP DP  RH WIND       PRES   REMARKS
CRAIG          FAIR      28  25  88 CALM      30.40F
HAYDEN         FAIR      35  32  88 E5        30.41F WCI  31
MEEKER         FAIR      32  30  92 CALM      30.42F
RABBIT EARS PA CLOUDY   N/A N/A N/A W6        30.50F HAZE
STEAMBOAT SPGS CLOUDY    34  33  99 CALM      30.41F
WALDEN         FAIR      34  30  86 S7        30.41F WCI  28
$$

COZ006>008-011-231200-
...WEST CENTRAL VALLEYS...

CITY           SKY/WX    TMP DP  RH WIND       PRES   REMARKS
GRAND JUNCTION FAIR      35  30  82 E7        30.38F WCI  29
MONTROSE       FAIR      33  29  85 S10       30.44F WCI  25
EAGLE          MOCLDY    27  25  93 NE3       30.49S
RIFLE          FAIR      31  30  96 CALM      30.43F
DELTA          FAIR      35  29  77 CALM      30.42F
NUCLA          FAIR      36  30  80 E10       30.45F
$$

COZ017>023-064>068-231200-
...SOUTHWEST COLORADO...

CITY           SKY/WX    TMP DP  RH WIND       PRES   REMARKS
DURANGO        FAIR      29  23  78 NE5       30.38F WCI  24
CORTEZ         FAIR      29  24  82 NE8       30.38F WCI  21
PAGOSA SPRINGS FAIR      34  25  69 CALM      30.41F
TELLURIDE      FAIR      34  27  73 CALM      30.51S
WOLF CREEK PAS FAIR      34  21  60 NW5       30.62F WCI  30
$$

COZ009-010-012-014-032>034-037-058>063-231200-
...CENTRAL COLORADO...

CITY           SKY/WX    TMP DP  RH WIND       PRES   REMARKS
ASPEN          FAIR      32  28  85 CALM      30.47S
BUENA VISTA    FAIR      38  31  75 NW5       30.42F
COPPER MTN     CLOUDY    34  32  93 MISG      30.56F
BERTHOUD PASS  CLOUDY    25  14  63 NW37      30.48F WCI   6
COTTONWOOD PAS FAIR      43  32  65 W12G24    30.47F
GUNNISON       FAIR      22  21  96 CALM      30.50S
KREMMLING      FOG       32  32 100 CALM      30.45F VSB 3/4
LEADVILLE      MOCLDY    30  27  88 N5        30.49F WCI  25
MONARCH PASS   FAIR      32  23  69 W3        30.67F
SALIDA         FAIR      36  31  84 CALM      30.49F
SUNLIGHT       FAIR      32  30  93 NW5       30.59F WCI  27
WILKERSON PASS FAIR      36  18  48 NW14G25   30.53F
$$

COZ069>075-231200-
...SAN LUIS VALLEY/SANGRE DE CRISTO MOUNTAINS...

CITY           SKY/WX    TMP DP  RH WIND       PRES   REMARKS
ALAMOSA        FAIR      28  23  81 W7        30.41S WCI  21
DEL NORTE      FAIR      41  28  60 W9        30.41F
LA VETA PASS   FAIR      34  28  80 SW10        N/A  WCI  26
SAGUACHE       FAIR      41  32  70 NW17G24   30.41F
$$

COZ035-036-038>040-231200-
...NORTHERN COLORADO FRONT RANGE...

CITY           SKY/WX    TMP DP  RH WIND       PRES   REMARKS
DENVER INTL AP FAIR      48  32  53 SW12      30.24S
DMNS CITY PARK   N/A     44  32  62 SE13      30.24F
AURORA         PTCLDY    46  33  61 S8        30.25F
FRONT RANGE AP FAIR      50  35  55 SW14      30.25S
ERIE MUNI ARPT FAIR      36  32  85 CALM      30.28S
BOULDER MUN AP FAIR      52  32  46 SE3       30.22S
CENTENNIAL     FAIR      42  32  67 S5        30.26F
BROOMFIELD     FAIR      54  32  43 W5        30.24F
FORT COLLINS   FAIR      41  35  79 CALM      30.22F
LONGMONT       FAIR      37  32  82 W3        30.24S
$$

COZ041-046-047-076>085-087-088-231200-
...PIKES PEAK/PALMER DIVIDE AND SOUTHERN FOOTHILLS...

CITY           SKY/WX    TMP DP  RH WIND       PRES   REMARKS
COLO. SPRINGS  MOCLDY    43  31  62 N7        30.30S
A. F. ACADEMY  FAIR      32  29  87 N8        30.30F WCI  25
SCHRIEVER AFB  FAIR      48  31  52 N7        30.29F
CHEYENNE MTN   FAIR      49  29  47 CALM      30.27S
ELLICOTT         N/A    N/A N/A N/A CALM      30.28S
FALCON         FAIR      43  30  62 CALM      30.32F
FORT CARSON    FAIR      43  31  62 NW10      30.27S
LIMON          FAIR      37  33  85 NW6       30.25F
MONUMENT HILL  FAIR      34  30  86 SW9       30.32F WCI  26
CANON CITY     FAIR      54  34  47 W15       30.26F
WALSENBURG     FAIR      50  32  50 SW12      30.29S
TRINIDAD       FAIR      39  30  70 W12       30.28F
$$

COZ042>045-048>051-090-091-231200-
...NORTHEAST COLORADO...

CITY           SKY/WX    TMP DP  RH WIND       PRES   REMARKS
GREELEY ARPT   FAIR      33  30  88 W6        30.22F WCI  28
AKRON          FAIR      42  34  73 W9        30.20F
BURLINGTON     FAIR      41  36  82 W10       30.19F
WRAY           NOT AVBL
YUMA           FAIR      37  34  87 W8        30.18S
STERLING       FAIR      37  34  87 S7        30.17S
HOLYOKE        FAIR      43  37  81 W9        30.15F
FORT MORGAN    FAIR      38  32  77 W6        30.21S
$$

COZ086-089-092>099-231200-
...SOUTHEAST COLORADO...

CITY           SKY/WX    TMP DP  RH WIND       PRES   REMARKS
PUEBLO         FAIR      37  30  75 SW5       30.25S
LA JUNTA       FAIR      41  30  65 W9        30.23S
LAMAR          FAIR      34  26  72 W7        30.20S WCI  28
SPRINGFIELD      N/A     40  30  67 W9        30.21S
$$



USA.gov is the U.S. government's official web portal to all federal, state and local government web resources and services.